Location: Carella
(45.8167°N, 9.2667°E)
Time: 13:48:12
(UTC+00:00)

BREEZE-M DEB (TANK) - Visible Passes

Search period start: 06 August 2020 00:00
Search period end: 16 August 2020 00:00
Orbit: 312 x 11937 km, 49.7° (Epoch: 05 August)

Date Brightness Start Highest point End Pass type
(mag) Time Alt. Az. Time Alt. Az. Time Alt. Az.
06 Aug 9.0 01:45:59 10° W 03:27:45 89° NNE 03:53:05 10° ESE visible
06 Aug 9.5 20:25:50 10° SSW 21:37:32 74° SE 22:51:12 10° ENE visible
07 Aug 9.3 00:46:03 10° W 02:30:43 85° NNE 03:02:02 10° ESE visible
07 Aug 9.5 19:35:32 10° S 20:41:15 64° ESE 21:57:26 10° ENE visible
07 Aug 9.5 23:48:13 10° WSW 01:31:15 83° N 02:10:32 10° E visible
08 Aug 9.4 18:46:19 10° S 19:47:18 54° ESE 21:03:01 10° NE visible
08 Aug 9.6 22:52:18 10° WSW 00:29:26 85° NNW 01:18:36 10° E visible
09 Aug 8.5 03:40:27 10° WNW 05:03:46 68° SW 05:22:14 10° SSE visible
09 Aug 9.4 17:58:24 10° SSE 18:55:24 44° E 20:07:43 10° NE visible
09 Aug 9.7 21:58:01 10° SW 23:26:22 88° NNW 00:26:13 10° E visible
10 Aug 8.7 02:37:32 10° WNW 04:11:01 79° SW 04:32:13 10° SE visible
10 Aug 9.4 17:12:20 10° SE 18:05:17 35° E 19:11:12 10° NE visible
10 Aug 9.7 21:05:05 10° SW 22:24:01 86° SE 23:33:21 10° ENE visible
11 Aug 8.9 01:35:43 10° W 03:16:33 87° SSW 03:41:44 10° SE visible
11 Aug 9.6 20:13:17 10° SSW 21:23:55 78° SE 22:39:59 10° ENE visible
12 Aug 9.2 00:35:35 10° W 02:20:01 87° NNE 02:50:46 10° ESE visible
12 Aug 9.5 19:22:30 10° SSW 20:26:28 69° ESE 21:46:04 10° ENE visible
12 Aug 9.3 23:37:24 10° W 01:20:59 84° N 01:59:20 10° ESE visible
13 Aug 9.4 18:32:43 10° S 19:31:33 59° ESE 20:51:31 10° ENE visible
13 Aug 9.5 22:41:04 10° WSW 00:19:18 84° N 01:07:26 10° E visible
14 Aug 8.5 03:29:14 10° WNW 04:50:55 62° WSW 05:10:12 10° SSE visible
14 Aug 9.4 17:44:01 10° SSE 18:38:53 49° ESE 19:56:11 10° NE visible
14 Aug 9.6 21:46:22 10° WSW 23:15:40 86° NNW 00:15:01 10° E visible
15 Aug 8.7 02:26:42 10° WNW 03:58:41 73° SW 04:20:22 10° SSE visible
15 Aug 9.4 16:56:45 10° SSE 17:48:07 39° E 18:59:47 10° NE visible
15 Aug 9.7 20:53:01 10° SW 22:12:07 89° SSE 23:22:05 10° ENE visible
